• In India
  • List of Countries
  • For 7 days
  • Water Temperature
  • Satellite Maps
  • Weather Map
  • Weather Widgets
  • user-avatar
    Login

    Hourly Weather Istebna

    Today, 21 January, Sunday

    Time Temperature Precipitation Wind Pressure Humidity
    00:00 -4°C° 0.1 mm 2 mps 702 mmHg 90%
    01:00 -4°C° 0.1 mm 2 mps 701 mmHg 90%
    02:00 -4°C° 0.1 mm 2 mps 701 mmHg 90%
    03:00 -4°C° 0.1 mm 2 mps 701 mmHg 90%
    04:00 -4°C° 0.1 mm 2 mps 700 mmHg 90%
    05:00 -4°C° 0.3 mm 2 mps 700 mmHg 91%
    06:00 -2°C° 0.3 mm 1 mps 700 mmHg 92%
    07:00 -2°C° 0.3 mm 1 mps 700 mmHg 93%
    08:00 -2°C° 0.4 mm 1 mps 701 mmHg 92%
    09:00 -1°C° 0.4 mm 1 mps 701 mmHg 91%
    10:00 -1°C° 0.4 mm 1 mps 702 mmHg 90%
    11:00 0°C° 0.3 mm 1 mps 702 mmHg 90%
    12:00 -2°C° 0.3 mm 2 mps 702 mmHg 89%
    13:00 -2°C° 0.3 mm 2 mps 703 mmHg 89%
    14:00 -2°C° 0.2 mm 2 mps 703 mmHg 90%
    15:00 -2°C° 0.2 mm 3 mps 704 mmHg 91%
    16:00 -4°C° 0.2 mm 3 mps 704 mmHg 91%
    17:00 -4°C° 0.2 mm 3 mps 705 mmHg 92%
    18:00 -5°C° 0.2 mm 3 mps 706 mmHg 93%
    19:00 -5°C° 0.2 mm 3 mps 706 mmHg 94%
    20:00 -5°C° 0.2 mm 3 mps 707 mmHg 93%
    21:00 -5°C° 0.2 mm 3 mps 708 mmHg 92%
    22:00 -6°C° 0.2 mm 3 mps 708 mmHg 92%
    23:00 -6°C° 0.1 mm 3 mps 708 mmHg 92%

    Tomorrow, 22 January, Monday

    Time Temperature Precipitation Wind Pressure Humidity
    00:00 -6°C° 0.1 mm 3 mps 709 mmHg 92%
    01:00 -5°C° 0.1 mm 2 mps 709 mmHg 92%
    02:00 -6°C° 0.1 mm 2 mps 709 mmHg 92%
    03:00 -6°C° 0.1 mm 2 mps 709 mmHg 93%
    04:00 -6°C° 0.1 mm 2 mps 709 mmHg 93%
    05:00 -6°C° 0 mm 2 mps 709 mmHg 94%
    06:00 -6°C° 0 mm 1 mps 709 mmHg 94%
    07:00 -6°C° 0 mm 1 mps 709 mmHg 94%
    08:00 -6°C° 0 mm 1 mps 709 mmHg 91%
    09:00 -4°C° 0 mm 1 mps 709 mmHg 88%
    10:00 -3°C° 0 mm 1 mps 709 mmHg 85%
    11:00 -3°C° 0 mm 1 mps 709 mmHg 81%
    12:00 -2°C° 0 mm 1 mps 709 mmHg 77%
    13:00 -1°C° 0 mm 1 mps 709 mmHg 74%
    14:00 -2°C° 0 mm 1 mps 709 mmHg 77%
    15:00 -3°C° 0 mm 1 mps 709 mmHg 80%
    16:00 -3°C° 0 mm 1 mps 709 mmHg 83%
    17:00 -4°C° 0 mm 1 mps 709 mmHg 84%
    18:00 -4°C° 0 mm 1 mps 709 mmHg 86%
    19:00 -6°C° 0 mm 1 mps 710 mmHg 87%
    20:00 -6°C° 0 mm 1 mps 710 mmHg 87%
    21:00 -6°C° 0 mm 1 mps 710 mmHg 86%
    22:00 -6°C° 0 mm 1 mps 711 mmHg 86%
    23:00 -6°C° 0 mm 1 mps 711 mmHg 85%

    Day after tomorrow, 23 January, Tuesday

    Time Temperature Precipitation Wind Pressure Humidity
    00:00 -6°C° 0 mm 1 mps 711 mmHg 84%
    01:00 -6°C° 0 mm 1 mps 711 mmHg 83%
    02:00 -6°C° 0 mm 1 mps 711 mmHg 83%
    03:00 -6°C° 0 mm 1 mps 712 mmHg 83%
    04:00 -6°C° 0 mm 1 mps 712 mmHg 82%
    05:00 -6°C° 0 mm 1 mps 712 mmHg 83%
    06:00 -6°C° 0 mm 1 mps 713 mmHg 83%
    07:00 -6°C° 0 mm 1 mps 713 mmHg 84%
    08:00 -4°C° 0.1 mm 1 mps 714 mmHg 82%
    09:00 -3°C° 0.1 mm 1 mps 714 mmHg 80%
    10:00 -2°C° 0.1 mm 1 mps 715 mmHg 78%
    11:00 -1°C° 0 mm 1 mps 715 mmHg 78%
    12:00 0°C° 0 mm 1 mps 716 mmHg 77%
    13:00 +1°C° 0 mm 1 mps 716 mmHg 77%
    14:00 0°C° 0 mm 1 mps 716 mmHg 81%
    15:00 0°C° 0 mm 1 mps 716 mmHg 84%
    16:00 -1°C° 0 mm 1 mps 717 mmHg 88%
    17:00 -1°C° 0 mm 1 mps 717 mmHg 90%
    18:00 -2°C° 0 mm 1 mps 717 mmHg 91%
    19:00 -3°C° 0 mm 1 mps 718 mmHg 93%
    20:00 -3°C° 0 mm 1 mps 718 mmHg 93%
    21:00 -3°C° 0 mm 1 mps 718 mmHg 93%
    22:00 -3°C° 0 mm 1 mps 718 mmHg 94%
    23:00 -5°C° 0 mm 2 mps 718 mmHg 94%

    24 January, Wednesday

    Time Temperature Precipitation Wind Pressure Humidity
    00:00 -5°C° 0 mm 2 mps 718 mmHg 94%
    01:00 -5°C° 0 mm 2 mps 718 mmHg 94%
    02:00 -5°C° 0 mm 2 mps 718 mmHg 94%
    03:00 -5°C° 0 mm 2 mps 718 mmHg 93%
    04:00 -5°C° 0 mm 2 mps 719 mmHg 93%
    05:00 -5°C° 0 mm 2 mps 719 mmHg 93%
    06:00 -5°C° 0 mm 2 mps 719 mmHg 93%
    07:00 -4°C° 0 mm 2 mps 719 mmHg 92%
    08:00 -4°C° 0 mm 3 mps 719 mmHg 90%
    09:00 -4°C° 0 mm 3 mps 719 mmHg 88%
    10:00 -2°C° 0 mm 3 mps 719 mmHg 85%
    11:00 -1°C° 0 mm 3 mps 719 mmHg 85%
    12:00 0°C° 0 mm 3 mps 719 mmHg 84%
    13:00 0°C° 0 mm 3 mps 719 mmHg 83%
    14:00 0°C° 0 mm 3 mps 719 mmHg 85%
    15:00 -1°C° 0 mm 3 mps 719 mmHg 87%
    16:00 -1°C° 0 mm 3 mps 719 mmHg 88%
    17:00 -2°C° 0 mm 3 mps 718 mmHg 89%
    18:00 -2°C° 0 mm 3 mps 718 mmHg 91%
    19:00 -4°C° 0 mm 3 mps 718 mmHg 92%
    20:00 -4°C° 0 mm 3 mps 718 mmHg 91%
    21:00 -4°C° 0 mm 3 mps 718 mmHg 91%
    22:00 -5°C° 0 mm 3 mps 718 mmHg 91%
    23:00 -5°C° 0 mm 3 mps 718 mmHg 90%

    25 January, Thursday

    Time Temperature Precipitation Wind Pressure Humidity
    00:00 -5°C° 0 mm 3 mps 717 mmHg 89%
    01:00 -5°C° 0 mm 3 mps 717 mmHg 88%
    02:00 -5°C° 0 mm 3 mps 717 mmHg 88%
    03:00 -5°C° 0 mm 3 mps 716 mmHg 87%
    04:00 -5°C° 0 mm 3 mps 716 mmHg 86%
    05:00 -4°C° 0 mm 2 mps 716 mmHg 85%
    06:00 -4°C° 0 mm 2 mps 716 mmHg 84%
    07:00 -4°C° 0 mm 2 mps 715 mmHg 83%
    08:00 -3°C° 0 mm 2 mps 716 mmHg 80%
    09:00 -2°C° 0 mm 3 mps 716 mmHg 77%
    10:00 0°C° 0 mm 3 mps 716 mmHg 73%
    11:00 0°C° 0 mm 3 mps 715 mmHg 73%
    12:00 +1°C° 0 mm 3 mps 715 mmHg 72%
    13:00 +2°C° 0 mm 3 mps 715 mmHg 72%
    14:00 +2°C° 0 mm 2 mps 715 mmHg 75%
    15:00 +1°C° 0 mm 2 mps 714 mmHg 78%
    16:00 -1°C° 0 mm 2 mps 714 mmHg 81%
    17:00 -1°C° 0 mm 2 mps 714 mmHg 81%
    18:00 -2°C° 0 mm 2 mps 714 mmHg 81%
    19:00 -3°C° 0 mm 2 mps 713 mmHg 82%
    20:00 -3°C° 0 mm 2 mps 713 mmHg 80%
    21:00 -3°C° 0 mm 2 mps 713 mmHg 79%
    22:00 -3°C° 0 mm 2 mps 713 mmHg 78%
    23:00 -3°C° 0 mm 2 mps 713 mmHg 77%

    26 January, Friday

    Time Temperature Precipitation Wind Pressure Humidity
    00:00 -3°C° 0 mm 2 mps 713 mmHg 77%
    01:00 -3°C° 0 mm 2 mps 713 mmHg 76%
    02:00 -3°C° 0 mm 2 mps 713 mmHg 75%
    03:00 -3°C° 0 mm 2 mps 713 mmHg 75%
    04:00 -2°C° 0 mm 1 mps 712 mmHg 75%
    05:00 -2°C° 0 mm 1 mps 712 mmHg 74%
    06:00 -2°C° 0 mm 1 mps 713 mmHg 74%
    07:00 -2°C° 0 mm 1 mps 713 mmHg 74%
    08:00 -1°C° 0 mm 1 mps 713 mmHg 72%
    09:00 0°C° 0 mm 1 mps 713 mmHg 70%
    10:00 +2°C° 0 mm 1 mps 713 mmHg 68%
    11:00 +1°C° 0 mm 2 mps 713 mmHg 67%
    12:00 +2°C° 0 mm 2 mps 713 mmHg 67%
    13:00 +3°C° 0 mm 2 mps 713 mmHg 66%
    14:00 +2°C° 0 mm 2 mps 713 mmHg 70%
    15:00 +1°C° 0 mm 2 mps 713 mmHg 74%
    16:00 +1°C° 0 mm 1 mps 713 mmHg 77%
    17:00 -1°C° 0 mm 2 mps 714 mmHg 78%
    18:00 -2°C° 0 mm 2 mps 714 mmHg 78%
    19:00 -2°C° 0 mm 2 mps 714 mmHg 79%
    20:00 -2°C° 0 mm 2 mps 714 mmHg 78%
    21:00 -2°C° 0 mm 2 mps 715 mmHg 78%
    22:00 -2°C° 0 mm 2 mps 715 mmHg 78%
    23:00 -3°C° 0 mm 2 mps 715 mmHg 79%
    Show more